Location: Unspecified
(0.0000°N, 0.0000°E)
Time: 01:15:03
(UTC+00:00)

Tiros 1 despin weight - Pass Details

Date: 07 October 2020
Orbit: 594 x 641 km, 48.2° (Epoch: 25 October)

Event Time Altitude Azimuth Distance (km) Brightness Sun altitude
Rises 18:12:00 0° 290° (WNW) 2,919 ? -6.1°
Reaches altitude 10° 18:15:02 10° 270° (W) 2,019 ? -6.8°
Maximum altitude 18:18:03 17° 230° (SW) 1,615 ? -7.6°
Drops below altitude 10° 18:21:04 10° 189° (S) 2,028 ? -8.3°
Sets 18:24:08 0° 169° (S) 2,938 ? -9.1°
